IU2GFL-13 Weather Reports


time (UTC)temp
C
wind
direction
speed
KPH
gust
KPH
rain 1hr
cm
rain 24hr
cm
rain mn
cm
humidity
%
barometer
mb
20260505052003 15 0.0 0.0 0.00 0.00 0.00 60 989.4
20260505035943 15 0.0 0.0 0.00 0.00 0.00 59 989.2
20260505033938 15 0.0 0.0 0.00 0.00 0.00 60 989.3
20260505031933 15 0.0 0.0 0.00 0.00 0.00 60 989.3
20260505025928 15 0.0 0.0 0.00 0.00 0.00 57 989.5
20260505023923 15 0.0 0.0 0.00 0.00 0.00 58 989.7
20260505021918 15 0.0 0.0 0.00 0.00 0.00 58 989.8
20260505015914 15 0.0 0.0 0.00 0.00 0.00 56 989.9
20260505013909 15 0.0 0.0 0.00 0.00 0.00 57 990.2
20260505011904 15 0.0 0.0 0.00 0.00 0.00 57 990.4
20260505005900 15 0.0 0.0 0.00 0.00 0.00 57 990.5
20260505003855 15 0.0 0.0 0.00 0.00 0.00 57 991.0
20260505001851 15 0.0 0.0 0.00 0.00 0.00 57 991.3
20260504235846 15 0.0 0.0 0.00 0.00 0.00 57 991.6
20260504233842 15 0.0 0.0 0.00 0.00 0.00 57 991.8
20260504231837 15 0.0 0.0 0.00 0.00 0.00 55 992.0
20260504225832 16 0.0 0.0 0.00 0.00 0.00 55 992.0
20260504223827 16 0.0 0.0 0.00 0.00 0.00 55 992.3
20260504221822 16 0.0 0.0 0.00 0.00 0.00 55 992.2
20260504215817 16 0.0 0.0 0.00 0.00 0.00 55 992.5
20260504213812 16 0.0 0.0 0.00 0.00 0.00 55 992.8
20260504211808 16 0.0 0.0 0.00 0.00 0.00 54 992.8
20260504205803 17 0.0 0.0 0.00 0.00 0.00 53 992.9
20260504203758 17 0.0 0.0 0.00 0.00 0.00 53 993.0
20260504201753 17 0.0 0.0 0.00 0.00 0.00 51 992.8
20260504195748 18 0.0 0.0 0.00 0.00 0.00 50 992.7
20260504193744 18 0.0 0.0 0.00 0.00 0.00 49 992.5
20260504191739 18 0.0 0.0 0.00 0.00 0.00 48 992.5
20260504185735 19 0.0 0.0 0.00 0.00 0.00 46 992.3
20260504183730 20 0.0 0.0 0.00 0.00 0.00 45 992.2
20260504181725 21 0.0 0.0 0.00 0.00 0.00 43 992.1
20260504175721 21 0.0 0.0 0.00 0.00 0.00 41 992.0
20260504173716 22 0.0 0.0 0.00 0.00 0.00 40 992.0
20260504171712 22 0.0 0.0 0.00 0.00 0.00 38 992.1
20260504081459 24 0.0 0.0 0.00 0.00 0.00 34 994.3